星链-36508(STARLINK-36508)

导读 | 豆包AI

STARLINK-36508是美国太空探索技术公司星链星座的卫星,于2026年1月12日发射。星链项目旨在构建全球卫星互联网星座,为全球提供高速低延迟宽带服务,该卫星入轨后将进一步扩充星链网络规模,提升星座覆盖能力与服务稳定性,助力全球网络覆盖实现。

基本信息
目录编号:
67410
目录名称:
STARLINK-36508
国际标识:
2026-005G
轨道中心:
EARTH
卫星名称:
星链-36508
卫星全名:
星链-36508(STARLINK-36508)
卫星状态:
在轨 (已飞行82 天)
发射日期:
2026-01-12 UTC
国别 :
美国 (US)
星等 :
--
轨道信息
数据来源 国际轨道数据
星历时间: 2026-04-03T16:23:52+0800
15小时前
查看轨道信息
半长轴: 6861.102km
偏心率: 0.0001451
轨道倾角: 43.001°
近地点辐角 268.233°
升交点赤经 99.089°
平近点角 91.835°
近地点: 481.969km
远地点: 483.961km
周期: 94.265分钟
每日圈数: 15.276081
详细信息
固有亮度:
5
最大亮度:
2.5
卫星平台:
Starlink V1.0
覆盖范围:
全球
运营商:
太空探索技术公司
运营商所在国:
美国
制造商(研发单位):
太空探索技术公司
制造商所在国:
美国
使用方式:
暂无
卫星简介
Starlink 计划是 SpaceX 推出的全球卫星互联网项目,通过发射低轨道卫星,为全球尤其是偏远地区提供高速、低延迟的互联网服务。自 2019 年起,Starlink 已部署数千颗卫星,旨在缩小全球数字鸿沟,推动互联网普及。该项目还为军事、航空等行业提供通信支持,带来广泛经济效益。
2D轨道图
3D轨道图
轨道高度分析图
轨道倾角分析图
轨道综合分析图
查看轨道综合分析图